Powrót do katalogu

NOAA 16 DEB

AktywnySSO
NORAD 41210·DEBRIS·🇺🇸 United States

Wystrzelony Sep 21, 2000 z Vandenberg Space Force Base

Loading…

Następne Przeloty (najbliższe 24 godziny)

TLE

ŚwieżeSource: Space-Track

Epoka: Sep 14, 2026, 08:46 UTC

1 41210U 00055DP  26257.36591668  .00001645  00000-0  75934-3 0  9991
2 41210  98.6745 309.0723 0022205 222.2337 137.7131 14.22207420555456

Śledź NOAA 16 DEB w czasie rzeczywistym z AllMySat

Download on the App Store